HB9CYX-13 Weather Reports


time (UTC)temp
F
wind
direction
speed
knots
gust
knots
rain 1hr
in
rain 24hr
in
rain mn
in
humidity
%
barometer
mb
20260508005431 46 90 0.0 1.7 0.00 0.11 0.00 86 1018.0
20260508004214 47 90 0.0 1.7 0.00 0.11 0.00 86 1017.9
20260508002957 46 90 0.0 0.9 0.00 0.11 0.00 86 1017.9
20260508001740 46 202 0.0 0.9 0.00 0.11 0.00 85 1018.0
20260508000522 47 225 0.0 0.9 0.00 0.11 0.00 84 1017.9
20260507235307 48 225 0.0 0.9 0.00 0.11 0.00 82 1017.9
20260507234048 48 180 0.0 0.9 0.00 0.11 0.00 83 1017.8
20260507232831 48 180 0.0 0.9 0.00 0.11 0.00 83 1017.9
20260507231613 48 180 0.0 0.0 0.00 0.11 0.00 82 1018.0
20260507230356 48 112 0.0 0.0 0.00 0.11 0.00 81 1018.2
20260507225139 49 90 0.0 0.0 0.00 0.11 0.00 79 1018.1
20260507223922 50 90 0.0 0.0 0.00 0.11 0.00 77 1018.1
20260507222705 51 90 0.0 0.0 0.00 0.11 0.00 76 1018.1
20260507221448 51 90 0.0 0.0 0.00 0.11 0.00 76 1018.2
20260507220230 51 90 0.0 0.0 0.00 0.11 0.00 76 1018.2
20260507215013 51 90 0.0 15.6 0.00 0.11 0.11 76 1018.1
20260507213756 51 180 0.0 15.6 0.00 0.11 0.11 73 1018.0
20260507212539 51 180 0.0 15.6 0.00 0.11 0.11 73 1017.9
20260507211322 52 180 0.0 15.6 0.00 0.11 0.11 72 1017.9
20260507210105 52 90 0.0 15.6 0.00 0.11 0.11 71 1017.7
20260507204848 53 90 0.0 15.6 0.00 0.11 0.11 70 1017.6
20260507203630 53 90 0.0 15.6 0.00 0.11 0.11 68 1017.5
20260507202413 54 90 0.0 15.6 0.00 0.11 0.11 65 1017.3
20260507201156 54 270 0.0 15.6 0.01 0.11 0.11 65 1017.3
20260507195939 55 180 0.9 15.6 0.03 0.11 0.11 65 1017.3
20260507194722 53 45 0.0 15.6 0.03 0.11 0.11 66 1017.2
20260507193505 53 225 0.0 15.6 0.03 0.11 0.11 66 1017.1
20260507192248 55 315 0.0 15.6 0.03 0.11 0.11 63 1016.8
20260507191031 55 315 0.9 15.6 0.01 0.08 0.08 62 1016.7
20260507185813 56 225 0.0 15.6 0.00 0.07 0.07 60 1016.6
20260507184556 57 225 0.0 15.6 0.00 0.07 0.07 59 1016.6
20260507183339 57 225 0.9 15.6 0.00 0.07 0.07 59 1016.6
20260507182122 57 135 3.5 15.6 0.00 0.07 0.07 58 1016.4
20260507180905 58 180 4.3 15.6 0.00 0.07 0.07 57 1016.1
20260507175647 60 90 0.0 15.6 0.00 0.07 0.07 53 1015.9
20260507174430 64 225 1.7 15.6 0.00 0.07 0.07 48 1015.5
20260507173213 61 270 7.0 15.6 0.00 0.07 0.07 52 1015.6
20260507171956 61 292 0.9 15.6 0.00 0.07 0.07 50 1015.6
20260507170739 61 270 1.7 15.6 0.00 0.07 0.07 51 1015.5
20260507165521 61 315 4.3 15.6 0.00 0.07 0.07 49 1015.5
20260507164304 63 292 5.2 15.6 0.00 0.07 0.07 46 1015.3
20260507163047 64 180 7.8 15.6 0.00 0.07 0.07 43 1015.2
20260507161830 65 225 1.7 15.6 0.00 0.07 0.07 43 1015.0
20260507160613 69 315 3.5 15.6 0.00 0.07 0.07 39 1014.7
20260507155356 66 180 2.6 15.6 0.00 0.07 0.07 44 1015.0
20260507154138 67 180 4.3 15.6 0.00 0.07 0.07 41 1014.7
20260507152921 66 225 4.3 15.6 0.00 0.07 0.07 44 1014.9
20260507151704 69 270 2.6 15.6 0.00 0.07 0.07 41 1014.6
20260507150447 68 225 1.7 15.6 0.00 0.07 0.07 42 1014.8
20260507145230 69 225 3.5 15.6 0.00 0.07 0.07 42 1014.7
20260507144013 68 315 8.7 15.6 0.00 0.07 0.07 42 1014.7
20260507142756 68 225 2.6 15.6 0.00 0.07 0.07 43 1014.8
20260507141539 68 45 3.5 12.2 0.00 0.07 0.07 44 1014.8
20260507140321 64 270 4.3 12.2 0.00 0.07 0.07 47 1015.3
20260507135104 65 270 2.6 12.2 0.00 0.07 0.07 48 1015.4
20260507133847 65 315 2.6 12.2 0.00 0.07 0.07 49 1015.5
20260507132630 67 270 6.1 12.2 0.00 0.07 0.07 47 1015.3
20260507131413 67 225 0.0 12.2 0.00 0.07 0.07 52 1015.3
20260507130156 60 270 3.5 12.2 0.00 0.07 0.07 63 1016.1
20260507124938 59 270 5.2 12.2 0.00 0.07 0.07 62 1016.4
20260507123721 61 292 4.3 12.2 0.00 0.08 0.07 53 1016.3
20260507122504 67 225 7.0 12.2 0.00 0.12 0.07 46 1015.4
20260507121247 67 292 6.1 12.2 0.00 0.14 0.07 48 1015.4
20260507120030 62 135 5.2 12.2 0.00 0.15 0.07 55 1015.9
20260507114812 66 225 2.6 12.2 0.00 0.17 0.07 55 1015.5
20260507113555 64 225 0.9 12.2 0.00 0.18 0.07 53 1015.9
20260507112338 62 225 11.3 12.2 0.00 0.19 0.07 53 1016.0
20260507111121 62 45 1.7 12.2 0.00 0.20 0.07 59 1016.2
20260507105903 61 225 0.0 12.2 0.00 0.20 0.07 61 1016.3
20260507104646 60 90 0.0 12.2 0.00 0.20 0.07 60 1016.4
20260507103429 61 270 3.5 12.2 0.00 0.20 0.07 57 1016.3
20260507102212 62 270 3.5 12.2 0.00 0.20 0.07 59 1016.2
20260507100955 61 270 1.7 10.4 0.00 0.20 0.07 56 1016.4
20260507095737 64 180 7.0 10.4 0.00 0.20 0.07 51 1016.1
20260507094520 62 315 3.5 9.6 0.00 0.20 0.07 56 1016.3
20260507093303 61 225 0.0 9.6 0.00 0.20 0.07 60 1016.5
20260507092046 64 90 0.9 9.6 0.00 0.22 0.07 59 1016.1
20260507090829 55 270 0.9 9.6 0.00 0.20 0.07 74 1017.1
20260507085611 56 225 2.6 8.7 0.00 0.22 0.07 88 1017.0
20260507084354 56 225 2.6 8.7 0.00 0.22 0.07 88 1017.0
20260507083137 55 270 0.9 8.7 0.00 0.22 0.07 88 1017.1
20260507081920 52 270 3.5 7.0 0.00 0.22 0.07 88 1017.4
20260507080703 52 315 0.0 7.0 0.00 0.22 0.07 88 1017.3
20260507075446 51 180 0.0 7.0 0.01 0.22 0.07 88 1017.5
20260507074228 50 292 0.0 7.0 0.01 0.22 0.07 89 1017.7
20260507073012 50 315 0.9 7.0 0.01 0.22 0.07 90 1017.5
20260507071754 50 315 1.7 7.0 0.01 0.22 0.07 91 1017.5
20260507070537 50 315 0.0 7.0 0.01 0.22 0.07 93 1017.5
20260507065320 49 270 0.9 7.0 0.00 0.20 0.06 94 1017.5
20260507064102 49 135 0.0 7.0 0.00 0.20 0.06 95 1017.4
20260507062845 48 270 0.0 7.0 0.00 0.20 0.06 95 1017.3
20260507061628 48 135 0.0 7.0 0.00 0.20 0.06 97 1017.3
20260507060411 48 292 0.0 7.0 0.00 0.20 0.06 97 1017.2
20260507055153 48 180 0.0 7.0 0.00 0.20 0.06 97 1017.1
20260507053936 48 135 0.0 7.0 0.00 0.20 0.06 97 1017.0
20260507052719 47 180 0.0 7.0 0.00 0.20 0.06 98 1016.9
20260507051502 47 315 0.0 7.0 0.00 0.20 0.06 98 1016.8
20260507050245 47 315 0.0 7.0 0.00 0.20 0.06 98 1016.7
20260507045027 47 315 0.0 7.0 0.00 0.20 0.06 99 1016.6
20260507043810 46 292 0.0 7.0 0.00 0.20 0.06 99 1016.5
20260507042553 46 270 0.0 7.0 0.00 0.20 0.06 99 1016.5
20260507041336 46 315 0.0 7.0 0.00 0.20 0.06 99 1016.4
20260507034901 46 315 0.0 7.0 0.01 0.20 0.06 99 1016.3
20260507033644 46 315 0.0 7.0 0.02 0.20 0.06 99 1016.2
20260507032427 46 315 0.0 7.0 0.02 0.20 0.06 99 1016.1
20260507031210 46 225 0.0 7.0 0.03 0.20 0.06 99 1016.1
20260507025953 46 315 0.0 7.0 0.03 0.19 0.05 98 1016.1
20260507024736 46 270 0.0 7.0 0.04 0.19 0.05 98 1016.1
20260507022301 46 225 0.0 7.0 0.02 0.17 0.03 97 1015.9
20260507021044 46 135 0.0 7.0 0.02 0.17 0.03 97 1015.8
20260507015827 46 270 0.0 7.0 0.01 0.16 0.02 96 1015.8
20260507014609 46 270 2.6 7.0 0.01 0.15 0.01 96 1015.7
20260507013352 46 315 0.9 7.0 0.01 0.15 0.01 95 1015.6
20260507012135 46 315 1.7 7.0 0.01 0.15 0.01 95 1015.6
20260507010918 46 270 2.6 6.1 0.01 0.15 0.01 94 1015.5